IRIDIUM 115

Last updated on Tue Sep 22 2026 00:03:21 GMT+0000 (Coordinated Universal Time)

1 42806U 17039D 26264.28044490 .00000066 00000+0 13606-4 0 9992 2 42806 86.4444 281.9205 0002272 86.0889 274.0571 14.43279710488128
UTC large
Height (km)
Speed (km/s)
/
Latitude / Longitude
Inclination (degrees)
Orbital Period (minutes)
Azimuth
Elevation
Range (km)
Doppler Factor

Next 0 passes for location: London (51.5072 / 0.1276)

No passes found over London.
IRIDIUM 115